Stations météo

réclame
Mon MeteoGroup
Floda, Suède (2476): Température de l'air & dewpoint: 14.10.2018 19:00:00 - 20.10.2018 19:00:00 (CEST)Floda, Suède (2476): Vitesse du vent & gusts: 14.10.2018 19:00:00 - 20.10.2018 19:00:00 (CEST)Floda, Suède (2476): Direction du vent: 14.10.2018 19:00:00 - 20.10.2018 19:00:00 (CEST)Floda, Suède (2476): reduced air pressure: 14.10.2018 19:00:00 - 20.10.2018 19:00:00 (CEST)Floda, Suède (2476): visibility: 14.10.2018 19:00:00 - 20.10.2018 19:00:00 (CEST)Floda, Suède (2476): Quantités de précipitations: 14.10.2018 19:00:00 - 20.10.2018 19:00:00 (CEST)
Date & Time tt [°C] td [°C] ff [km/h] ff [knt] fx [km/h] fx [knt] dd ppp [hPa] vv [km] rr [mm]
20.10.2018 19:00:00 3,0 -0,2 0 0 10 5 N 1023,1 1,0 0,0
20.10.2018 18:00:00 5,4 1,7 0 0 17 9 N 1022,9 20 0,0
20.10.2018 17:00:00 8,1 4,3 8 5 17 9 NW 1022,5 39 0,0
20.10.2018 16:00:00 10,4 5,6 11 6 16 9 WNW 1021,9 35 0,0
20.10.2018 15:00:00 11,6 5,2 5 3 14 7 WNW 1022,0 36 0,0
20.10.2018 14:00:00 9,8 4,6 4 2 16 8 WNW 1021,9 40 0,0
20.10.2018 13:00:00 10,5 5,1 6 3 16 8 WSW 1021,7 31 0,0
20.10.2018 12:00:00 9,8 5,0 5 3 9 5 SW 1021,5 40 0,0
20.10.2018 11:00:00 7,4 4,4 2 1 4 2 ENE 1021,4 32 0,0
20.10.2018 10:00:00 4,6 2,5 2 1 3 2 ESE 1021,0 25 0,0
20.10.2018 09:00:00 3,2 0,9 0 0 3 1 N 1020,9 11 0,0
20.10.2018 08:00:00 3,2 0,6 0 0 6 3 N 1020,5 19 0,0
20.10.2018 07:00:00 3,5 0,5 0 0 6 3 N 1020,2 34 0,0
20.10.2018 06:00:00 3,0 0,4 0 0 4 2 N 1020,2 29 0,0
20.10.2018 05:00:00 2,5 -0,1 0 0 4 2 N 1020,3 39 0,0
20.10.2018 04:00:00 2,0 -1,1 0 0 3 1 N 1020,4 32 0,0
20.10.2018 03:00:00 1,3 -1,9 0 0 3 1 N 1020,6 38 0,0
20.10.2018 02:00:00 1,0 -2,1 0 0 3 1 N 1021,0 43 0,0
20.10.2018 01:00:00 0,6 -2,0 0 0 3 1 N 1021,3 43 0,0
20.10.2018 00:00:00 0,0 -3,0 0 0 4 2 N 1021,5 45 0,0
19.10.2018 23:00:00 -0,3 -2,5 0 0 4 2 N 1021,7 36 0,0
19.10.2018 22:00:00 0,3 -1,9 0 0 3 2 N 1022,0 20 0,0
19.10.2018 21:00:00 1,1 -1,5 0 0 4 2 N 1022,2 32 0,0
19.10.2018 20:00:00 2,0 -0,6 0 0 4 2 N 1022,0 44 0,0
19.10.2018 19:00:00 3,2 -0,1 0 0 2 1 N 1022,2 50 0,0
19.10.2018 18:00:00 6,1 2,0 0 0 8 5 N 1022,1 50 0,0
19.10.2018 17:00:00 9,7 2,5 0 0 10 5 N 1022,0 50 0,0
19.10.2018 16:00:00 11,0 2,6 6 3 12 7 WSW 1022,4 50 0,0
19.10.2018 15:00:00 11,8 1,4 7 4 12 7 W 1022,6 50 0,0
19.10.2018 14:00:00 11,2 3,7 4 2 10 5 W 1023,1 48 0,0
19.10.2018 13:00:00 10,0 3,5 3 2 9 5 WSW 1023,2 35 0,0
19.10.2018 12:00:00 7,2 3,4 5 3 8 4 W 1023,8 39 0,0
19.10.2018 11:00:00 3,6 0,3 0 0 3 2 N 1023,9 37 0,0
19.10.2018 10:00:00 1,8 -0,9 0 0 3 2 N 1023,8 33 0,0
19.10.2018 09:00:00 -1,3 -4,1 0 0 4 2 N 1023,6 46 0,0
19.10.2018 08:00:00 -2,1 -4,3 0 0 4 2 N 1023,3 50 0,0
19.10.2018 07:00:00 -2,3 -4,5 3 2 4 2 SW 1023,2 50 0,0
19.10.2018 06:00:00 -2,4 -5,5 0 0 4 2 N 1023,0 28 0,0
19.10.2018 05:00:00 -1,8 -4,5 0 0 4 2 N 1022,9 30 0,0
19.10.2018 04:00:00 -2,0 -4,7 2 1 4 2 SW 1022,7 4,7 0,0
19.10.2018 03:00:00 -0,9 -3,1 0 0 4 2 N 1022,5 26 0,0
19.10.2018 02:00:00 -1,0 -4,2 0 0 2 1 N 1022,5 41 0,0
19.10.2018 01:00:00 0,5 -2,1 0 0 3 1 N 1022,7 45 0,0
19.10.2018 00:00:00 1,2 -1,9 0 0 5 3 N 1022,7 50 0,0
18.10.2018 23:00:00 2,7 -0,4 0 0 8 5 N 1022,1 50 0,0
18.10.2018 22:00:00 4,4 0,0 3 2 8 5 W 1021,9 49 0,0
18.10.2018 21:00:00 4,1 0,3 3 2 6 3 WNW 1021,4 50 0,0
18.10.2018 20:00:00 5,0 0,6 2 1 8 4 SW 1020,5 47 0,0
18.10.2018 19:00:00 7,6 1,2 4 2 11 6 WNW 1020,0 50 0,0
18.10.2018 18:00:00 8,7 1,1 3 2 22 12 WNW 1019,6 50 0,0
18.10.2018 17:00:00 11,9 2,6 8 4 28 15 W 1018,9 50 0,0
18.10.2018 16:00:00 13,3 2,8 14 8 29 16 W 1018,4 50 0,0
18.10.2018 15:00:00 13,4 2,3 19 10 34 18 WNW 1017,9 42 0,0
18.10.2018 14:00:00 13,4 3,5 19 11 34 18 WNW 1017,3 48 0,0
18.10.2018 13:00:00 13,2 3,6 23 12 34 18 WNW 1017,1 40 0,0
18.10.2018 12:00:00 13,0 5,9 19 10 31 17 WNW 1017,1 50 0,0
18.10.2018 11:00:00 12,3 7,6 18 10 30 16 W 1016,7 28 0,0
18.10.2018 10:00:00 11,1 8,3 10 6 17 9 WSW 1016,4 23 0,0
18.10.2018 09:00:00 11,4 8,8 10 6 17 9 WSW 1016,2 19 0,0
18.10.2018 08:00:00 11,4 8,8 9 5 16 9 WSW 1015,9 17 0,2
18.10.2018 07:00:00 11,8 8,5 8 5 16 9 W 1015,6 21 0,0
18.10.2018 06:00:00 12,5 9,3 9 5 16 9 WSW 1015,6 12 0,0
18.10.2018 05:00:00 12,7 9,7 10 5 15 8 WSW 1015,5 9 0,0
18.10.2018 04:00:00 12,3 8,8 4 2 16 8 W 1015,7 8 0,0
18.10.2018 03:00:00 12,6 9,4 6 3 18 10 WSW 1016,1 8 0,0
18.10.2018 02:00:00 13,2 10,6 10 6 24 13 SW 1016,2 10 0,0
18.10.2018 01:00:00 14,3 10,7 14 7 24 13 WSW 1016,7 15 0,0
18.10.2018 00:00:00 14,2 10,4 9 5 19 10 SW 1016,6 21 0,0
17.10.2018 23:00:00 14,9 10,7 13 7 19 10 SW 1016,6 29 0,0
17.10.2018 22:00:00 13,1 9,7 8 5 13 7 S 1016,6 25 0,0
17.10.2018 21:00:00 11,6 9,5 4 2 8 4 SE 1016,8 7 0,0
17.10.2018 20:00:00 11,8 9,7 5 3 8 4 SE 1016,9 8 0,0
17.10.2018 19:00:00 - - - - 8 4 - - - -
17.10.2018 18:00:00 - - - - 7 4 - - - -
17.10.2018 17:00:00 15,8 11,0 3 2 9 5 S 1016,8 26 0,0
17.10.2018 16:00:00 17,2 11,0 5 3 9 5 S 1016,9 33 0,0
17.10.2018 15:00:00 17,7 10,6 0 0 21 12 N 1017,1 27 0,0
17.10.2018 14:00:00 16,3 10,6 4 2 21 12 SW 1017,3 19 0,0
17.10.2018 13:00:00 16,1 11,3 11 6 19 11 WSW 1017,7 25 0,0
17.10.2018 12:00:00 - - - - 16 9 - - - -
17.10.2018 11:00:00 13,5 10,3 8 4 16 9 WSW 1017,9 10 0,0
17.10.2018 10:00:00 13,0 10,2 9 5 16 9 WSW 1017,7 8 0,0
17.10.2018 09:00:00 11,1 7,8 0 0 5 3 N 1017,5 7 0,0
17.10.2018 08:00:00 10,5 7,7 3 1 8 4 ESE 1017,4 7 0,0
17.10.2018 07:00:00 10,0 7,6 0 0 8 4 N 1017,3 5 0,0
17.10.2018 06:00:00 9,7 7,3 0 0 13 7 N 1017,1 5 0,0
17.10.2018 05:00:00 9,5 7,3 3 1 13 7 ESE 1017,2 5 0,0
17.10.2018 04:00:00 9,8 7,7 4 2 10 5 SE 1017,5 6 0,0
17.10.2018 03:00:00 10,0 7,9 4 2 11 6 SE 1017,6 4,0 0,0
17.10.2018 02:00:00 10,0 8,3 7 4 11 6 SE 1017,9 4,8 0,0
17.10.2018 01:00:00 9,9 8,2 7 4 21 11 SE 1018,1 6 0,0
17.10.2018 00:00:00 9,9 8,2 8 5 21 11 SE 1018,6 7 0,3
16.10.2018 23:00:00 10,1 8,0 9 5 20 11 SE 1018,8 8 0,0
16.10.2018 22:00:00 10,5 8,3 12 7 20 11 SE 1019,0 12 0,0
16.10.2018 21:00:00 10,9 8,6 11 6 19 10 ESE 1019,2 11 0,0
16.10.2018 20:00:00 11,4 8,8 10 5 16 9 SE 1019,4 12 0,0
16.10.2018 19:00:00 12,0 8,8 7 4 15 8 SE 1019,3 19 0,0
16.10.2018 18:00:00 12,6 9,1 5 3 13 7 E 1019,0 29 0,0
16.10.2018 17:00:00 12,8 9,2 6 3 13 7 E 1018,6 30 0,0
16.10.2018 16:00:00 13,1 9,5 6 3 10 5 ENE 1019,1 25 0,0
16.10.2018 15:00:00 13,1 9,6 6 3 15 8 NE 1019,2 25 0,0
16.10.2018 14:00:00 13,1 9,4 6 3 15 8 NNE 1018,9 23 0,0
16.10.2018 13:00:00 12,5 9,5 7 4 15 8 ENE 1018,5 18 0,0
16.10.2018 12:00:00 11,8 9,2 6 4 11 6 NE 1018,8 13 0,0
16.10.2018 11:00:00 11,2 7,9 0 0 5 3 N 1018,6 10 0,0
16.10.2018 10:00:00 10,0 6,9 2 1 5 3 W 1018,1 5 0,0
16.10.2018 09:00:00 8,2 6,0 0 0 6 4 N 1017,5 4,9 0,0
16.10.2018 08:00:00 6,6 4,3 0 0 6 4 N 1016,7 3,9 0,0
16.10.2018 07:00:00 5,2 2,9 0 0 3 2 N 1016,2 6 0,0
16.10.2018 06:00:00 4,0 1,4 0 0 5 3 N 1016,1 5 0,0
16.10.2018 05:00:00 4,5 1,9 2 1 5 3 WSW 1015,5 4,1 0,0
16.10.2018 04:00:00 4,5 2,4 0 0 4 2 N 1014,9 1,3 0,0
16.10.2018 03:00:00 4,9 2,4 0 0 6 3 N 1014,6 0,4 0,0
16.10.2018 02:00:00 5,7 2,9 0 0 6 3 N 1014,6 0,4 0,0
16.10.2018 01:00:00 6,5 4,0 0 0 5 3 N 1014,5 0,7 0,0
16.10.2018 00:00:00 7,3 5,1 0 0 9 5 N 1014,2 2,7 0,0
15.10.2018 23:00:00 7,8 5,3 3 1 9 5 SE 1013,7 3,9 0,0
15.10.2018 22:00:00 8,4 6,4 5 3 8 5 ESE 1013,6 7 0,0
15.10.2018 21:00:00 9,9 7,3 3 2 11 6 E 1013,5 11 0,0
15.10.2018 20:00:00 - - - - - - - - - -
15.10.2018 19:00:00 12,9 9,0 7 4 12 6 ESE 1013,3 19 0,0
15.10.2018 18:00:00 15,1 9,9 7 4 12 6 ESE 1013,0 22 0,0
15.10.2018 17:00:00 19,0 9,8 6 3 16 8 SE 1012,9 27 0,0
15.10.2018 16:00:00 21,4 9,6 7 4 19 11 SSE 1012,7 33 0,0
15.10.2018 15:00:00 21,7 9,6 8 5 27 15 S 1013,1 27 0,0
15.10.2018 14:00:00 21,6 9,5 15 8 27 15 S 1013,3 34 0,0
15.10.2018 13:00:00 20,5 10,0 7 4 15 8 S 1013,5 26 0,0
15.10.2018 12:00:00 17,7 9,8 7 4 15 8 S 1013,8 26 0,0
15.10.2018 11:00:00 15,0 8,7 6 3 15 8 SSE 1014,2 20 0,0
15.10.2018 10:00:00 12,2 8,3 4 2 12 7 ESE 1014,2 14 0,0
15.10.2018 09:00:00 9,6 7,0 6 3 12 7 ESE 1014,1 8 0,0
15.10.2018 08:00:00 7,4 5,7 6 3 10 6 ESE 1013,9 3,4 0,0
15.10.2018 07:00:00 7,8 5,9 4 2 11 6 ESE 1013,8 3,9 0,0
15.10.2018 06:00:00 7,7 5,8 8 4 13 7 ESE 1013,6 5 0,0
15.10.2018 05:00:00 9,0 6,3 4 2 13 7 SE 1013,3 8 0,0
15.10.2018 04:00:00 8,5 6,5 7 4 14 8 SE 1013,2 6 0,0
15.10.2018 03:00:00 9,1 6,9 8 4 14 8 SE 1013,2 8 0,0
15.10.2018 02:00:00 9,5 6,9 6 4 14 8 SE 1013,2 9 0,0
15.10.2018 01:00:00 10,0 7,1 6 4 17 9 SE 1013,6 10 0,0
15.10.2018 00:00:00 10,8 7,5 8 4 24 13 SE 1013,5 11 0,0
14.10.2018 23:00:00 11,7 7,8 9 5 24 13 SE 1013,6 12 0,0
14.10.2018 22:00:00 12,2 7,7 9 5 24 13 SE 1013,5 14 0,0
14.10.2018 21:00:00 12,0 7,9 14 7 21 12 SE 1013,6 13 0,0
14.10.2018 20:00:00 11,8 8,1 11 6 19 10 SE 1014,3 12 0,0
14.10.2018 19:00:00 11,8 8,1 10 5 22 12 ESE 1014,6 12 0,0

tt = Température de l'air
td = dewpoint
ff = Vitesse du vent
fx = gusts
dd = Direction du vent
ppp = reduced air pressure
vv = visibility
rr = Quantités de précipitations

stations d'obs. à proximité